Flag for Morocco Weather past 2 weeks in Marrakech, Morocco

Now
84 °F

Sunny.


Feels Like: 84 °F
Forecast: 68 / 103 °F
Wind: 5 mph from North

Location: Marrakech Airport

Current Time: Jul 4, 2015 at 11:14:07 AM

Latest Report: Jul 4, 2015 at 11:00 AM


Visibility: 10 mi

Pressure: 30.09 "Hg

Humidity: 45%

Dew point: 61 °F

Location of MarrakechLocation

Historic Weather in Marrakech — Graph

°F

Marrakech temperature yesterday

Maximum temperature yesterday: 99 °F (at 4:00 PM)
Minimum temperature yesterday: 66 °F (at 5:00 AM)
Average temperature yesterday: 82 °F

Past Weeks' High & Low Weather Summary

 TemperatureHumidityPressure
High102 °F (Jun 28, 3:00 PM)100% (Jun 20, 6:30 AM)30.15 "Hg (Jun 20, 6:30 AM)
Low61 °F (Jun 25, 6:00 AM)15% (Jun 29, 1:30 PM)29.95 "Hg (Jun 19, 2:30 PM)
Average80 °F54%30.05 "Hg
* Reported Jun 19 10:00 AM — Jul 4 10:00 AM, Marrakech, Weather by CustomWeather, © 2015

Note: Actual official high and low records may vary slightly from our data, if they occured in-between our weather recording intervals... More about our weather records

Advertising

Marrakech weather history for previous 24 hours

 ConditionsComfort  
Time TempWeatherWind HumidityBarometerVisibility
10:00 AM
Sat, Jul 4
81 °FPassing clouds.5 mph51%30.09 "HgN/A
9:30 AM79 °FPassing clouds.5 mph54%30.09 "HgN/A
9:00 AM77 °FPassing clouds.5 mph57%30.09 "HgN/A
8:30 AM75 °FPassing clouds.5 mph61%30.09 "HgN/A
8:00 AM72 °FPassing clouds.6 mph69%30.09 "HgN/A
7:30 AM72 °FPassing clouds.7 mph69%30.09 "HgN/A
7:00 AM70 °FSunny.6 mph69%30.09 "Hg10 mi
6:30 AM68 °FSunny.6 mph73%30.09 "Hg10 mi
6:00 AM68 °FSunny.6 mph73%30.09 "Hg10 mi
5:30 AM66 °FClear.5 mph78%30.09 "Hg10 mi
5:00 AM68 °FClear.6 mph73%30.07 "Hg10 mi
4:30 AM68 °FClear.7 mph73%30.07 "Hg10 mi
4:00 AM70 °FClear.7 mph64%30.07 "Hg10 mi
3:30 AM70 °FClear.7 mph64%30.07 "Hg10 mi
3:00 AM72 °FClear.8 mph61%30.07 "Hg10 mi
2:30 AM73 °FClear.7 mph57%30.07 "Hg10 mi
2:00 AM73 °FClear.6 mph57%30.07 "Hg10 mi
1:30 AM77 °FPassing clouds.3 mph47%30.07 "HgN/A
1:00 AM77 °FPassing clouds.3 mph47%30.09 "HgN/A
12:30 AM79 °FClear.6 mph45%30.09 "Hg10 mi
12:00 AM79 °FPassing clouds.6 mph45%30.09 "HgN/A
11:30 PM
Fri, Jul 3
81 °FPassing clouds.6 mph42%30.09 "HgN/A
11:00 PM81 °FClear.6 mph42%30.12 "Hg10 mi
10:30 PM82 °FClear.6 mph40%30.12 "Hg10 mi
10:00 PM82 °FClear.7 mph40%30.12 "Hg10 mi
9:30 PM84 °FClear.7 mph40%30.12 "Hg10 mi
9:00 PM84 °FClear.9 mph40%30.09 "Hg10 mi
8:30 PM86 °FPassing clouds.12 mph38%30.09 "HgN/A
8:00 PM88 °FPassing clouds.12 mph35%30.09 "HgN/A
7:30 PM90 °FSunny.12 mph36%30.07 "Hg10 mi
7:00 PM93 °FPassing clouds.12 mph34%30.07 "HgN/A
6:30 PM95 °FPassing clouds.12 mph30%30.07 "HgN/A
6:00 PM99 °FClear.7 mph25%30.04 "Hg5 mi
5:30 PM99 °FClear.6 mph25%30.04 "Hg4 mi
5:00 PM99 °FClear.5 mph25%30.04 "Hg5 mi
4:30 PM99 °FClear.5 mph25%30.04 "Hg5 mi
4:00 PM99 °FSunny.6 mph27%30.04 "Hg10 mi
3:30 PM97 °FPassing clouds.6 mph28%30.04 "HgN/A
3:00 PM95 °FSunny.5 mph30%30.04 "Hg10 mi
2:30 PM95 °FSunny.6 mph32%30.07 "Hg10 mi
2:00 PM93 °FPassing clouds.7 mph34%30.07 "HgN/A
1:30 PM93 °FSunny.6 mph36%30.07 "Hg10 mi
1:00 PM91 °FPassing clouds.5 mph41%30.07 "HgN/A
12:30 PM88 °FPassing clouds.5 mph46%30.07 "HgN/A
12:00 PM86 °FPassing clouds.3 mph52%30.09 "HgN/A
11:30 AM84 °FPassing clouds.6 mph51%30.09 "HgN/A
11:00 AM82 °FPassing clouds.6 mph58%30.09 "HgN/A
Weather by CustomWeather, © 2015

See weather overviewHow to use our weather pages